Location: Bucharest
(44.4268°N, 26.1025°E)
Time: 21:10:43
(UTC+03:00)

CUBESAT XI-V - Pass Details

Date: 29 June 2022
Orbit: 668 x 690 km, 98.1° (Epoch: 18 August)

Event Time Altitude Azimuth Distance (km) Brightness Sun altitude
Exits shadow 03:07:03 32° 178° (S) 1,164 ? -18.0°
Maximum altitude 03:09:11 74° 257° (WSW) 706 ? -17.8°
Drops below altitude 10° 03:13:48 10° 343° (NNW) 2,111 ? -17.4°
Sets 03:16:03 0° 345° (NNW) 3,027 ? -17.2°
